Погода в Бероуне

Чехия     49°57′53″N   14°04′14″E
темп.,
°C
ветер,
м/с
пор.,
м/с
влажн.,
%
обл.,
%
осадки,
мм/ч
давл.,
гПа
погр.,
м
6 мая, чт
чт623:00+4з614775 0.0 1011785
02:00+3зюз612866 0.0 1012596
05:00+2юз5129197 0.0 1012476
08:00+5зюз61180100 0.0 1012722
11:00+5зюз61079100 0.1 10121029
14:00+10зюз6960100 0.3 10091710
17:00+10з6106099 0.3 10071508
20:00+6юз3792100 1.2 1007485
7 мая, пт
пт723:00+6ююз2797100 3.6 1006749
02:00+7зюз71491100 5.6 10031147
05:00+6зюз81488100 0.1 10041061
08:00+6з7128693 0.2 10071163
11:00+6зсз597743 0.2 10101243
14:00+9зсз8105456 0.8 10121963
17:00+8сз61165100 0.8 10131506
20:00+4сз37885 1.9 1017288
8 мая, сб
сб823:00+1зюз37945 0.0 1020123
02:00+1зюз39945 0.0 1021173
05:000зюз38945 0.0 1022144
08:00+4зюз36814 0.0 1022261
11:00+10зюз3547100 0.0 10211754
14:00+13юз3538100 0.0 10192330
17:00+13ююз3439100 0.0 10181912
20:00+10ююв226092 0.0 101821
9 мая, вс
вс923:00+7ююв226451 0.0 101829
02:00+4ююв227815 0.0 101822
05:00+4ю117918 0.0 101710
08:00+10юв23627 0.0 1016195
11:00+17юв46495 0.0 1014708
14:00+21юв56455 0.0 10131201
17:00+20юв675448 0.0 1011987
20:00+14вюв511745 0.0 1011447
10 мая, пн
пн1023:00+9в36885 0.0 1011122
02:00+7в239214 0.0 101148
05:00+6юв11935 0.0 101113
08:00+11ююв24775 0.0 1011322
11:00+18ююз23580 0.0 1011665
14:00+23ююз23480 0.0 10111291
17:00+23в43522 0.0 10101363
20:00+17вюв38795 0.0 1010231